Home > Weather > Raleigh > Past weeks

Flag for U.S.A. Weather for the Past 2 Weeks in Raleigh, North Carolina, U.S.A.

Now
51 °F

Partly sunny.


Feels Like: 48 °F
Forecast: 33 / 55 °F
Wind: 9 mph from West

Location: Raleigh-Durham International Airport

Current Time: Feb 8, 2016 at 6:17:48 PM

Latest Report: Feb 8, 2016 at 4:51 PM


Visibility: 10 mi

Pressure: 29.65 "Hg

Humidity: 42%

Dew point: 29 °F

Location of RaleighLocation

Historic Weather in Raleigh — Graph

°F

Raleigh Temperature Yesterday

Maximum temperature yesterday: 44 °F (at 3:51 PM)
Minimum temperature yesterday: 37 °F (at 5:51 AM)
Average temperature yesterday: 40 °F

High & Low Weather Summary for the Past Weeks

 TemperatureHumidityPressure
High72 °F (Feb 1, 2:51 PM)97% (Jan 26, 3:51 AM)30.47 "Hg (Jan 26, 3:51 AM)
Low25 °F (Jan 25, 4:51 AM)20% (Jan 24, 3:51 PM)29.65 "Hg (Feb 8, 3:51 PM)
Average46 °F66%30.08 "Hg
* Reported Jan 24 3:51 PM — Feb 8 3:51 PM, Raleigh, Weather by CustomWeather, © 2016

Note: Actual official high and low records may vary slightly from our data, if they occured in-between our weather recording intervals... More about our weather records

Advertising

Raleigh Weather History for the Previous 24 Hours

 ConditionsComfort  
Time TempWeatherWind HumidityBarometerVisibility
3:51 PM
Mon, Feb 8
52 °FMostly cloudy.14 mph41%29.65 "Hg10 mi
2:51 PM53 °FBroken clouds.10 mph38%29.66 "Hg10 mi
1:51 PM55 °FBroken clouds.12 mph39%29.69 "Hg10 mi
12:51 PM53 °FBroken clouds.6 mph37%29.72 "Hg10 mi
11:51 AM51 °FBroken clouds.No wind41%29.76 "Hg10 mi
10:51 AM49 °FPartly sunny.7 mph44%29.79 "Hg10 mi
9:51 AM45 °FPartly sunny.8 mph48%29.82 "Hg10 mi
8:51 AM36 °FScattered clouds.3 mph73%29.84 "Hg10 mi
7:51 AM30 °FPassing clouds.No wind79%29.84 "Hg10 mi
6:51 AM28 °FPassing clouds.No wind81%29.84 "Hg10 mi
5:51 AM29 °FClear.No wind79%29.84 "Hg10 mi
4:51 AM32 °FPassing clouds.No wind69%29.83 "Hg10 mi
3:51 AM32 °FPassing clouds.No wind66%29.82 "Hg10 mi
2:51 AM34 °FPassing clouds.No wind61%29.82 "Hg10 mi
1:51 AM37 °FPassing clouds.No wind52%29.81 "Hg10 mi
12:51 AM38 °FPassing clouds.3 mph51%29.82 "Hg10 mi
11:51 PM
Sun, Feb 7
39 °FPassing clouds.3 mph48%29.83 "Hg10 mi
10:51 PM40 °FPassing clouds.7 mph49%29.86 "Hg10 mi
9:51 PM41 °FPassing clouds.7 mph47%29.86 "Hg10 mi
8:51 PM42 °FPassing clouds.7 mph45%29.86 "Hg10 mi
7:51 PM42 °FPassing clouds.6 mph47%29.87 "Hg10 mi
6:51 PM42 °FPassing clouds.8 mph47%29.88 "Hg10 mi
Weather by CustomWeather, © 2016

See weather overviewHow to use our weather pages